GFSSE_prec_precacc_150.txt.gz
Total_Precipitation_Accumulation
0.06 0.11 0.33 0.31 0.26 0.35 0.25 0.22 0.22 0.16 0.20 0.19 0.17 0.14 0.13 0.26 0.30 0.17 0.12 0.08 0.15 0.20 0.20 0.30 0.48 0.53 0.58 0.37 0.18 0.12 0.13 0.14 0.17 0.19 0.22 0.26 0.26 0.16 0.12 0.11 0.11 0.09 0.15
0.03 0.09 0.24 0.27 0.38 0.47 0.47 0.31 0.25 0.14 0.17 0.17 0.24 0.19 0.14 0.32 0.20 0.07 0.04 0.08 0.18 0.27 0.30 0.38 0.39 0.28 0.19 0.08 0.03 0.02 0.01 0.04 0.06 0.03 0.02 0.02 0.10 0.12 0.06 0.06 0.15 0.12 0.14
0.04 0.11 0.15 0.21 0.31 0.38 0.41 0.29 0.13 0.10 0.14 0.16 0.26 0.30 0.19 0.32 0.10 0.04 0.08 0.10 0.31 0.34 0.38 0.34 0.14 0.03 0.03 0.02 0.01 0.01 0.00 0.03 0.05 0.06 0.03 0.02 0.05 0.13 0.11 0.09 0.11 0.10 0.09
0.04 0.12 0.13 0.23 0.29 0.26 0.29 0.27 0.23 0.14 0.13 0.17 0.29 0.27 0.26 0.30 0.04 0.08 0.08 0.15 0.39 0.34 0.19 0.05 0.01 0.02 0.02 0.01 0.01 0.01 0.01 0.01 0.01 0.02 0.02 0.00 0.01 0.03 0.06 0.10 0.09 0.08 0.08
0.10 0.26 0.21 0.28 0.31 0.28 0.24 0.29 0.31 0.34 0.37 0.31 0.34 0.46 0.47 0.34 0.19 0.29 0.16 0.17 0.20 0.06 0.02 0.02 0.01 0.00 0.00 0.01 0.01 0.00 0.00 0.00 0.00 0.00 0.00 0.02 0.05 0.15 0.14 0.13 0.14 0.17 0.22
0.18 0.39 0.46 0.42 0.40 0.30 0.25 0.24 0.24 0.25 0.31 0.37 0.40 0.47 0.39 0.29 0.52 0.64 0.29 0.14 0.05 0.04 0.02 0.01 0.00 0.00 0.00 0.01 0.02 0.00 0.00 0.00 0.00 0.01 0.01 0.05 0.09 0.21 0.16 0.13 0.22 0.27 0.27
0.15 0.26 0.43 0.55 0.43 0.38 0.34 0.25 0.29 0.33 0.33 0.32 0.37 0.31 0.21 0.29 0.76 0.69 0.37 0.16 0.04 0.03 0.02 0.00 0.00 0.00 0.00 0.00 0.02 0.01 0.00 0.00 0.00 0.00 0.00 0.01 0.04 0.08 0.07 0.05 0.04 0.08 0.12
0.33 0.43 0.36 0.33 0.31 0.30 0.33 0.36 0.34 0.33 0.34 0.40 0.40 0.43 0.45 0.43 0.63 0.61 0.39 0.28 0.09 0.02 0.01 0.01 0.00 0.00 0.01 0.01 0.01 0.01 0.00 0.00 0.00 0.00 0.00 0.01 0.03 0.02 0.03 0.04 0.04 0.06 0.06
0.88 0.91 0.87 0.47 0.37 0.23 0.17 0.20 0.37 0.35 0.33 0.33 0.38 0.39 0.30 0.25 0.32 0.40 0.33 0.27 0.16 0.05 0.05 0.02 0.00 0.00 0.01 0.02 0.02 0.02 0.01 0.00 0.00 0.00 0.00 0.01 0.02 0.01 0.02 0.04 0.05 0.06 0.08
1.34 1.23 1.15 0.78 0.48 0.20 0.13 0.15 0.24 0.26 0.21 0.27 0.29 0.21 0.11 0.06 0.10 0.28 0.12 0.09 0.16 0.15 0.11 0.09 0.06 0.05 0.03 0.02 0.02 0.01 0.01 0.00 0.00 0.00 0.00 0.00 0.01 0.02 0.04 0.05 0.05 0.07 0.11
1.77 1.65 1.50 1.28 0.71 0.36 0.14 0.11 0.20 0.27 0.21 0.20 0.21 0.18 0.15 0.05 0.06 0.17 0.11 0.03 0.05 0.09 0.06 0.08 0.10 0.10 0.04 0.01 0.01 0.00 0.00 0.00 0.00 0.00 0.00 0.00 0.01 0.02 0.04 0.04 0.06 0.06 0.07
1.84 1.66 1.50 1.31 0.86 0.41 0.29 0.23 0.12 0.28 0.21 0.07 0.09 0.13 0.15 0.13 0.10 0.10 0.10 0.04 0.05 0.06 0.05 0.06 0.05 0.04 0.02 0.01 0.01 0.00 0.00 0.00 0.00 0.00 0.00 0.00 0.00 0.02 0.02 0.04 0.04 0.02 0.02
2.25 1.53 1.25 1.20 1.14 0.67 0.30 0.21 0.16 0.49 0.38 0.18 0.08 0.09 0.12 0.11 0.12 0.18 0.17 0.08 0.05 0.03 0.01 0.03 0.02 0.04 0.04 0.05 0.06 0.03 0.00 0.00 0.00 0.00 0.00 0.00 0.00 0.01 0.02 0.02 0.05 0.04 0.05
3.49 1.92 1.30 1.02 0.73 0.60 0.36 0.10 0.08 0.24 0.29 0.25 0.17 0.09 0.10 0.08 0.11 0.16 0.14 0.09 0.10 0.07 0.05 0.05 0.04 0.02 0.03 0.03 0.03 0.02 0.01 0.00 0.00 0.00 0.00 0.00 0.00 0.00 0.00 0.03 0.10 0.14 0.18
4.14 3.67 2.07 1.51 1.41 0.55 0.40 0.12 0.06 0.11 0.36 0.27 0.26 0.15 0.16 0.14 0.15 0.12 0.14 0.13 0.09 0.06 0.05 0.06 0.05 0.03 0.03 0.05 0.09 0.08 0.05 0.04 0.01 0.01 0.00 0.00 0.00 0.00 0.00 0.02 0.06 0.09 0.14
1.62 3.06 3.61 2.19 1.43 1.22 0.84 0.31 0.10 0.04 0.16 0.38 0.26 0.20 0.18 0.30 0.35 0.18 0.16 0.11 0.07 0.09 0.06 0.06 0.07 0.08 0.04 0.04 0.02 0.04 0.07 0.07 0.05 0.02 0.01 0.00 0.00 0.00 0.00 0.00 0.02 0.09 0.21
0.85 1.63 2.32 2.43 1.66 1.26 1.14 0.75 0.24 0.13 0.07 0.27 0.34 0.25 0.19 0.21 0.20 0.24 0.20 0.19 0.22 0.34 0.41 0.32 0.22 0.21 0.13 0.10 0.08 0.03 0.03 0.06 0.08 0.07 0.05 0.03 0.03 0.01 0.00 0.00 0.02 0.10 0.21
0.56 0.75 1.13 1.11 1.53 1.20 1.40 1.06 0.72 0.37 0.16 0.17 0.45 0.41 0.29 0.30 0.23 0.19 0.13 0.09 0.25 0.51 0.66 0.52 0.37 0.32 0.22 0.20 0.21 0.19 0.20 0.17 0.12 0.13 0.14 0.14 0.12 0.09 0.03 0.01 0.02 0.06 0.07
0.45 0.52 0.66 0.65 0.58 0.85 1.08 1.39 1.24 0.90 0.43 0.22 0.26 0.43 0.58 0.40 0.48 0.37 0.25 0.17 0.29 0.47 0.48 0.47 0.46 0.44 0.35 0.30 0.30 0.34 0.32 0.26 0.23 0.20 0.17 0.19 0.24 0.26 0.22 0.14 0.10 0.06 0.05
0.53 0.43 0.40 0.45 0.36 0.46 0.73 1.21 1.35 1.13 0.87 0.47 0.23 0.14 0.43 0.84 0.69 0.77 0.58 0.43 0.49 0.56 0.70 0.74 0.40 0.46 0.45 0.57 0.61 0.42 0.37 0.32 0.27 0.26 0.24 0.26 0.31 0.37 0.40 0.41 0.35 0.36 0.42
0.70 0.52 0.34 0.28 0.38 0.48 0.60 0.80 0.99 0.92 1.06 0.95 0.74 0.70 0.40 0.46 0.75 0.78 0.76 0.83 0.80 0.70 0.63 0.74 0.81 0.66 0.44 0.55 0.65 0.40 0.35 0.29 0.22 0.23 0.31 0.36 0.34 0.44 0.62 0.79 0.82 0.74 0.61
1.00 0.72 0.68 0.55 0.71 0.54 0.62 0.93 1.06 1.09 1.03 1.25 1.25 1.04 1.21 1.01 0.95 0.91 0.65 0.57 0.66 0.73 0.68 0.59 0.65 0.71 0.58 0.68 0.67 0.50 0.27 0.15 0.09 0.06 0.13 0.18 0.23 0.32 0.36 0.41 0.44 0.54 0.60
1.25 0.85 0.73 0.76 0.68 0.47 0.55 0.82 1.15 1.46 1.46 1.09 0.75 0.68 0.75 1.15 1.23 1.27 1.19 1.17 1.07 0.93 0.82 0.73 0.74 0.85 0.85 0.81 0.72 0.82 0.41 0.15 0.13 0.14 0.15 0.18 0.21 0.23 0.25 0.38 0.47 0.47 0.37
1.24 0.87 0.73 0.87 0.82 0.85 1.12 1.20 0.98 1.03 1.26 1.17 1.32 1.16 1.37 1.32 1.26 1.43 1.59 1.51 1.57 1.57 1.30 1.23 1.13 1.14 1.09 0.78 0.73 0.62 0.65 0.44 0.33 0.18 0.14 0.24 0.27 0.42 0.55 0.60 0.58 0.42 0.29
1.57 0.95 0.70 1.20 1.30 1.23 1.19 1.65 1.60 1.71 1.37 1.41 1.60 1.67 1.60 1.78 1.92 1.98 2.01 2.07 1.87 1.87 2.05 1.84 1.68 1.56 1.47 1.29 1.07 0.95 0.78 0.69 0.64 0.62 0.39 0.40 0.55 0.64 0.80 0.78 0.56 0.36 0.32
1.39 1.37 1.00 0.98 1.10 1.11 1.08 1.45 1.64 1.31 1.21 1.09 1.23 1.47 1.43 1.48 1.68 1.98 2.11 2.01 1.95 1.61 1.48 1.59 1.58 1.45 1.37 1.21 0.99 0.93 0.85 0.85 0.77 0.84 0.74 0.52 0.57 0.60 0.63 0.83 1.18 0.78 0.52

GFSSE_prec_precacc_153.txt.gz
Total_Precipitation_Accumulation
0.08 0.11 0.36 0.31 0.26 0.35 0.25 0.22 0.22 0.16 0.20 0.19 0.17 0.14 0.13 0.26 0.30 0.17 0.12 0.08 0.15 0.20 0.20 0.30 0.48 0.58 0.59 0.37 0.18 0.12 0.13 0.14 0.17 0.19 0.22 0.26 0.26 0.16 0.12 0.11 0.11 0.09 0.15
0.04 0.09 0.26 0.27 0.38 0.47 0.47 0.31 0.25 0.14 0.17 0.17 0.24 0.19 0.14 0.32 0.20 0.07 0.04 0.09 0.18 0.27 0.30 0.38 0.39 0.28 0.19 0.08 0.03 0.02 0.01 0.04 0.06 0.03 0.02 0.02 0.10 0.12 0.06 0.06 0.15 0.12 0.14
0.05 0.11 0.15 0.22 0.31 0.39 0.41 0.29 0.13 0.10 0.14 0.16 0.26 0.30 0.19 0.32 0.10 0.04 0.08 0.10 0.33 0.35 0.38 0.34 0.14 0.03 0.04 0.02 0.01 0.01 0.00 0.03 0.05 0.06 0.03 0.02 0.05 0.13 0.11 0.09 0.11 0.10 0.09
0.04 0.12 0.13 0.24 0.29 0.26 0.30 0.27 0.23 0.14 0.13 0.17 0.29 0.27 0.26 0.30 0.04 0.08 0.08 0.15 0.40 0.36 0.19 0.05 0.01 0.02 0.02 0.02 0.01 0.01 0.01 0.01 0.01 0.02 0.02 0.00 0.01 0.03 0.06 0.10 0.09 0.08 0.08
0.10 0.26 0.21 0.28 0.31 0.28 0.24 0.29 0.31 0.34 0.38 0.31 0.34 0.46 0.47 0.34 0.19 0.29 0.16 0.17 0.20 0.06 0.02 0.02 0.01 0.00 0.00 0.02 0.01 0.00 0.00 0.00 0.00 0.00 0.00 0.02 0.05 0.15 0.14 0.13 0.14 0.17 0.22
0.18 0.39 0.46 0.42 0.40 0.30 0.25 0.24 0.24 0.25 0.31 0.37 0.41 0.47 0.39 0.29 0.52 0.64 0.29 0.14 0.05 0.04 0.02 0.01 0.00 0.00 0.00 0.01 0.02 0.00 0.00 0.00 0.00 0.01 0.01 0.05 0.09 0.21 0.16 0.13 0.22 0.27 0.27
0.15 0.26 0.43 0.55 0.43 0.38 0.34 0.25 0.29 0.33 0.33 0.32 0.37 0.31 0.21 0.29 0.76 0.69 0.37 0.16 0.04 0.03 0.02 0.00 0.00 0.00 0.00 0.00 0.02 0.03 0.00 0.00 0.00 0.00 0.00 0.01 0.04 0.08 0.07 0.05 0.04 0.08 0.12
0.33 0.43 0.36 0.33 0.31 0.30 0.33 0.36 0.34 0.33 0.34 0.40 0.40 0.43 0.45 0.43 0.63 0.62 0.40 0.28 0.09 0.02 0.01 0.01 0.00 0.00 0.01 0.01 0.01 0.01 0.00 0.00 0.00 0.00 0.00 0.01 0.03 0.02 0.03 0.04 0.04 0.06 0.06
0.88 0.91 0.87 0.47 0.37 0.23 0.17 0.20 0.37 0.35 0.33 0.33 0.38 0.39 0.30 0.25 0.32 0.40 0.33 0.27 0.16 0.05 0.05 0.02 0.00 0.00 0.01 0.02 0.02 0.02 0.01 0.00 0.00 0.00 0.00 0.01 0.02 0.01 0.02 0.04 0.05 0.06 0.08
1.34 1.23 1.15 0.78 0.48 0.20 0.13 0.15 0.24 0.26 0.21 0.27 0.29 0.21 0.11 0.06 0.10 0.28 0.12 0.10 0.17 0.16 0.12 0.10 0.06 0.05 0.03 0.02 0.02 0.01 0.01 0.00 0.00 0.00 0.00 0.00 0.01 0.02 0.04 0.05 0.05 0.07 0.11
1.77 1.65 1.50 1.28 0.71 0.36 0.14 0.11 0.20 0.27 0.21 0.20 0.21 0.18 0.15 0.05 0.06 0.17 0.11 0.03 0.05 0.12 0.11 0.12 0.13 0.11 0.04 0.01 0.01 0.00 0.00 0.00 0.00 0.00 0.00 0.00 0.01 0.02 0.04 0.04 0.06 0.06 0.07
1.84 1.66 1.50 1.31 0.86 0.41 0.29 0.23 0.12 0.28 0.21 0.07 0.09 0.13 0.15 0.13 0.10 0.11 0.10 0.05 0.05 0.07 0.07 0.10 0.10 0.08 0.04 0.01 0.01 0.00 0.00 0.00 0.00 0.00 0.00 0.00 0.00 0.02 0.02 0.04 0.04 0.02 0.02
2.25 1.53 1.25 1.20 1.14 0.67 0.30 0.21 0.16 0.49 0.38 0.18 0.08 0.09 0.12 0.11 0.12 0.18 0.17 0.08 0.05 0.03 0.02 0.03 0.03 0.05 0.04 0.06 0.06 0.03 0.00 0.00 0.00 0.00 0.00 0.00 0.00 0.01 0.02 0.02 0.05 0.04 0.05
3.49 1.92 1.30 1.02 0.73 0.60 0.36 0.10 0.08 0.24 0.29 0.25 0.17 0.09 0.10 0.08 0.11 0.16 0.14 0.09 0.10 0.08 0.05 0.06 0.05 0.03 0.03 0.05 0.05 0.02 0.02 0.01 0.00 0.00 0.00 0.00 0.00 0.00 0.00 0.03 0.10 0.14 0.18
4.14 3.67 2.07 1.51 1.41 0.55 0.40 0.12 0.06 0.11 0.36 0.27 0.26 0.15 0.16 0.14 0.15 0.12 0.14 0.13 0.09 0.06 0.05 0.06 0.05 0.03 0.03 0.06 0.11 0.09 0.06 0.06 0.03 0.03 0.00 0.00 0.00 0.00 0.00 0.02 0.06 0.09 0.14
1.62 3.06 3.61 2.19 1.43 1.22 0.84 0.31 0.10 0.04 0.16 0.38 0.26 0.20 0.18 0.30 0.35 0.18 0.16 0.11 0.07 0.09 0.06 0.06 0.07 0.08 0.04 0.04 0.03 0.05 0.08 0.10 0.10 0.07 0.06 0.06 0.04 0.01 0.00 0.00 0.02 0.10 0.21
0.85 1.63 2.32 2.43 1.66 1.26 1.14 0.75 0.24 0.13 0.07 0.27 0.34 0.25 0.19 0.21 0.20 0.24 0.20 0.19 0.22 0.34 0.41 0.32 0.22 0.21 0.13 0.10 0.08 0.03 0.03 0.07 0.10 0.10 0.10 0.11 0.14 0.09 0.05 0.01 0.02 0.10 0.22
0.56 0.75 1.13 1.11 1.53 1.20 1.40 1.06 0.72 0.37 0.16 0.17 0.45 0.41 0.29 0.30 0.23 0.19 0.13 0.09 0.25 0.51 0.66 0.52 0.37 0.32 0.22 0.20 0.21 0.19 0.20 0.17 0.12 0.14 0.16 0.17 0.18 0.16 0.12 0.08 0.05 0.08 0.08
0.45 0.52 0.66 0.65 0.58 0.85 1.08 1.39 1.24 0.90 0.43 0.22 0.26 0.43 0.58 0.40 0.48 0.37 0.25 0.17 0.29 0.47 0.48 0.47 0.46 0.44 0.35 0.30 0.30 0.34 0.32 0.26 0.23 0.21 0.17 0.21 0.27 0.33 0.32 0.24 0.21 0.14 0.11
0.53 0.43 0.40 0.45 0.36 0.46 0.73 1.21 1.35 1.13 0.87 0.47 0.23 0.14 0.43 0.84 0.69 0.77 0.58 0.43 0.49 0.56 0.70 0.74 0.40 0.46 0.45 0.57 0.61 0.42 0.37 0.32 0.27 0.26 0.25 0.26 0.31 0.38 0.42 0.46 0.46 0.50 0.57
0.70 0.52 0.34 0.28 0.38 0.48 0.60 0.80 0.99 0.92 1.06 0.95 0.74 0.70 0.40 0.46 0.75 0.78 0.76 0.83 0.80 0.70 0.63 0.74 0.81 0.66 0.44 0.55 0.65 0.40 0.35 0.29 0.22 0.23 0.31 0.36 0.34 0.44 0.62 0.82 0.88 0.80 0.70
1.00 0.72 0.68 0.55 0.71 0.54 0.62 0.93 1.06 1.09 1.03 1.25 1.25 1.04 1.21 1.01 0.95 0.91 0.65 0.57 0.66 0.73 0.68 0.59 0.65 0.71 0.58 0.68 0.67 0.50 0.27 0.15 0.09 0.06 0.13 0.19 0.25 0.36 0.39 0.44 0.49 0.62 0.66
1.25 0.85 0.73 0.76 0.68 0.47 0.55 0.82 1.15 1.46 1.46 1.09 0.75 0.68 0.75 1.15 1.23 1.27 1.19 1.17 1.07 0.93 0.82 0.73 0.74 0.85 0.85 0.81 0.72 0.83 0.42 0.15 0.13 0.14 0.15 0.18 0.21 0.26 0.31 0.49 0.59 0.58 0.46
1.24 0.87 0.73 0.87 0.82 0.85 1.12 1.20 0.98 1.03 1.26 1.17 1.32 1.16 1.37 1.32 1.26 1.43 1.59 1.51 1.57 1.57 1.30 1.23 1.13 1.14 1.09 0.78 0.73 0.62 0.66 0.44 0.34 0.18 0.14 0.24 0.27 0.42 0.57 0.64 0.66 0.51 0.37
1.57 0.95 0.70 1.20 1.30 1.23 1.19 1.65 1.60 1.71 1.37 1.41 1.60 1.67 1.60 1.78 1.92 1.98 2.01 2.07 1.87 1.87 2.05 1.84 1.68 1.56 1.47 1.29 1.07 0.95 0.78 0.69 0.64 0.63 0.39 0.40 0.55 0.65 0.80 0.79 0.59 0.42 0.61
1.39 1.37 1.00 0.98 1.10 1.11 1.08 1.45 1.64 1.31 1.21 1.09 1.23 1.47 1.43 1.48 1.68 1.98 2.11 2.01 1.95 1.61 1.48 1.59 1.58 1.45 1.37 1.21 0.99 0.93 0.85 0.85 0.77 0.85 0.74 0.52 0.57 0.60 0.65 0.85 1.28 1.25 1.21

GFSSE_prec_precacc_156.txt.gz
Total_Precipitation_Accumulation
0.08 0.14 0.38 0.31 0.26 0.35 0.25 0.22 0.22 0.16 0.20 0.19 0.17 0.14 0.13 0.26 0.30 0.17 0.12 0.08 0.15 0.20 0.20 0.30 0.49 0.60 0.61 0.38 0.18 0.12 0.13 0.14 0.17 0.19 0.22 0.26 0.26 0.16 0.12 0.11 0.11 0.09 0.15
0.04 0.09 0.29 0.30 0.38 0.47 0.47 0.31 0.25 0.14 0.17 0.17 0.24 0.19 0.14 0.32 0.20 0.07 0.04 0.09 0.18 0.27 0.30 0.38 0.39 0.28 0.19 0.08 0.03 0.02 0.01 0.04 0.06 0.03 0.02 0.02 0.10 0.12 0.06 0.06 0.15 0.12 0.14
0.05 0.11 0.16 0.24 0.32 0.39 0.41 0.29 0.13 0.10 0.14 0.16 0.26 0.30 0.19 0.32 0.10 0.04 0.08 0.11 0.35 0.35 0.38 0.34 0.14 0.03 0.04 0.02 0.01 0.01 0.00 0.03 0.05 0.06 0.03 0.02 0.05 0.13 0.11 0.09 0.11 0.10 0.09
0.05 0.12 0.13 0.24 0.30 0.26 0.30 0.27 0.23 0.14 0.13 0.17 0.29 0.27 0.26 0.30 0.04 0.08 0.08 0.15 0.41 0.37 0.19 0.05 0.01 0.02 0.02 0.03 0.01 0.01 0.01 0.01 0.01 0.02 0.02 0.00 0.01 0.03 0.06 0.10 0.09 0.08 0.08
0.10 0.26 0.21 0.28 0.31 0.28 0.24 0.29 0.31 0.34 0.38 0.31 0.34 0.46 0.47 0.34 0.19 0.29 0.16 0.17 0.20 0.06 0.02 0.02 0.01 0.00 0.00 0.02 0.01 0.00 0.00 0.00 0.00 0.00 0.00 0.02 0.05 0.15 0.14 0.13 0.14 0.17 0.22
0.18 0.39 0.47 0.42 0.40 0.30 0.25 0.24 0.24 0.25 0.31 0.37 0.41 0.47 0.39 0.29 0.52 0.64 0.29 0.14 0.05 0.04 0.02 0.01 0.00 0.00 0.00 0.01 0.02 0.00 0.00 0.00 0.00 0.01 0.01 0.05 0.09 0.21 0.16 0.13 0.22 0.27 0.27
0.15 0.26 0.43 0.55 0.43 0.38 0.34 0.25 0.29 0.33 0.33 0.32 0.37 0.31 0.21 0.29 0.76 0.70 0.37 0.16 0.04 0.03 0.02 0.00 0.00 0.00 0.00 0.00 0.02 0.03 0.01 0.00 0.00 0.00 0.00 0.01 0.04 0.08 0.07 0.05 0.04 0.08 0.12
0.33 0.43 0.36 0.33 0.31 0.30 0.33 0.36 0.34 0.33 0.34 0.40 0.41 0.44 0.45 0.43 0.63 0.62 0.41 0.29 0.09 0.02 0.01 0.01 0.00 0.00 0.01 0.01 0.01 0.01 0.01 0.00 0.00 0.00 0.00 0.01 0.03 0.02 0.03 0.04 0.04 0.06 0.06
0.88 0.91 0.87 0.47 0.37 0.23 0.17 0.20 0.37 0.35 0.33 0.33 0.38 0.40 0.30 0.25 0.32 0.40 0.34 0.29 0.17 0.07 0.07 0.03 0.00 0.00 0.01 0.02 0.02 0.02 0.01 0.00 0.00 0.00 0.00 0.01 0.02 0.01 0.02 0.04 0.05 0.06 0.08
1.34 1.23 1.15 0.78 0.48 0.20 0.13 0.15 0.24 0.26 0.21 0.27 0.29 0.21 0.11 0.06 0.10 0.28 0.12 0.10 0.19 0.19 0.16 0.14 0.08 0.05 0.04 0.02 0.02 0.01 0.01 0.00 0.00 0.00 0.00 0.00 0.01 0.02 0.04 0.05 0.05 0.07 0.11
1.77 1.65 1.50 1.28 0.71 0.36 0.14 0.11 0.20 0.27 0.21 0.20 0.21 0.18 0.15 0.05 0.06 0.17 0.11 0.03 0.06 0.13 0.12 0.16 0.17 0.15 0.08 0.02 0.01 0.00 0.00 0.00 0.00 0.00 0.00 0.00 0.01 0.02 0.04 0.04 0.06 0.06 0.07
1.84 1.66 1.50 1.31 0.86 0.41 0.29 0.23 0.12 0.28 0.21 0.07 0.09 0.13 0.15 0.13 0.10 0.11 0.10 0.05 0.05 0.07 0.07 0.11 0.11 0.10 0.04 0.01 0.01 0.00 0.00 0.00 0.00 0.00 0.00 0.00 0.00 0.02 0.02 0.04 0.04 0.02 0.02
2.25 1.53 1.25 1.20 1.14 0.67 0.30 0.21 0.16 0.49 0.38 0.18 0.08 0.09 0.12 0.11 0.12 0.18 0.17 0.08 0.05 0.03 0.02 0.03 0.03 0.06 0.06 0.07 0.06 0.04 0.00 0.00 0.00 0.00 0.00 0.00 0.00 0.01 0.02 0.02 0.05 0.04 0.05
3.49 1.92 1.30 1.02 0.73 0.60 0.36 0.10 0.08 0.24 0.29 0.25 0.17 0.09 0.10 0.08 0.11 0.16 0.14 0.09 0.10 0.08 0.05 0.06 0.05 0.03 0.04 0.07 0.08 0.06 0.05 0.03 0.01 0.00 0.00 0.00 0.01 0.01 0.00 0.03 0.11 0.15 0.19
4.14 3.67 2.07 1.51 1.41 0.55 0.40 0.12 0.06 0.11 0.36 0.27 0.26 0.15 0.16 0.14 0.15 0.12 0.14 0.13 0.09 0.06 0.05 0.06 0.05 0.03 0.03 0.06 0.11 0.10 0.08 0.08 0.06 0.05 0.01 0.01 0.03 0.04 0.02 0.03 0.08 0.11 0.15
1.62 3.06 3.61 2.19 1.43 1.22 0.84 0.31 0.10 0.04 0.16 0.38 0.26 0.20 0.18 0.30 0.35 0.18 0.16 0.11 0.07 0.09 0.06 0.06 0.07 0.08 0.04 0.04 0.03 0.05 0.09 0.10 0.11 0.08 0.08 0.08 0.08 0.06 0.04 0.05 0.05 0.13 0.24
0.85 1.63 2.32 2.43 1.66 1.26 1.14 0.75 0.24 0.13 0.07 0.27 0.34 0.25 0.19 0.21 0.20 0.24 0.20 0.19 0.22 0.34 0.41 0.32 0.22 0.21 0.13 0.10 0.08 0.03 0.03 0.07 0.10 0.10 0.11 0.13 0.17 0.15 0.12 0.08 0.09 0.16 0.27
0.56 0.75 1.13 1.11 1.53 1.20 1.40 1.06 0.72 0.37 0.16 0.17 0.45 0.41 0.29 0.30 0.23 0.19 0.13 0.09 0.25 0.51 0.66 0.52 0.37 0.32 0.22 0.20 0.21 0.19 0.20 0.17 0.12 0.14 0.16 0.17 0.18 0.17 0.14 0.11 0.11 0.14 0.15
0.45 0.52 0.66 0.65 0.58 0.85 1.08 1.39 1.24 0.90 0.43 0.22 0.26 0.43 0.58 0.40 0.48 0.37 0.25 0.17 0.29 0.47 0.48 0.47 0.46 0.44 0.35 0.30 0.30 0.34 0.32 0.26 0.23 0.21 0.17 0.21 0.27 0.33 0.32 0.24 0.22 0.15 0.15
0.53 0.43 0.40 0.45 0.36 0.46 0.73 1.21 1.35 1.13 0.87 0.47 0.23 0.14 0.43 0.84 0.69 0.77 0.58 0.43 0.49 0.56 0.70 0.74 0.40 0.46 0.45 0.57 0.61 0.42 0.37 0.32 0.27 0.26 0.25 0.26 0.31 0.38 0.42 0.46 0.46 0.50 0.59
0.70 0.52 0.34 0.28 0.38 0.48 0.60 0.80 0.99 0.92 1.06 0.95 0.74 0.70 0.40 0.46 0.75 0.78 0.76 0.83 0.80 0.70 0.63 0.74 0.81 0.66 0.44 0.55 0.65 0.40 0.35 0.29 0.22 0.23 0.31 0.36 0.34 0.44 0.62 0.82 0.88 0.81 0.71
1.00 0.72 0.68 0.55 0.71 0.54 0.62 0.93 1.06 1.09 1.03 1.25 1.25 1.04 1.21 1.01 0.95 0.91 0.65 0.57 0.66 0.73 0.68 0.59 0.65 0.71 0.58 0.68 0.67 0.50 0.27 0.15 0.09 0.06 0.13 0.19 0.25 0.36 0.39 0.44 0.49 0.63 0.71
1.25 0.85 0.73 0.76 0.68 0.47 0.55 0.82 1.15 1.46 1.46 1.09 0.75 0.68 0.75 1.15 1.23 1.27 1.19 1.17 1.07 0.93 0.82 0.73 0.74 0.85 0.85 0.81 0.72 0.83 0.42 0.15 0.13 0.14 0.15 0.18 0.21 0.26 0.31 0.49 0.59 0.59 0.48
1.24 0.87 0.73 0.87 0.82 0.85 1.12 1.20 0.98 1.03 1.26 1.17 1.32 1.16 1.37 1.32 1.26 1.43 1.59 1.51 1.57 1.57 1.30 1.23 1.13 1.14 1.09 0.78 0.73 0.62 0.66 0.44 0.34 0.18 0.14 0.24 0.27 0.42 0.57 0.64 0.66 0.51 0.37
1.57 0.95 0.70 1.20 1.30 1.23 1.19 1.65 1.60 1.71 1.37 1.41 1.60 1.67 1.60 1.78 1.92 1.98 2.01 2.07 1.87 1.87 2.05 1.84 1.68 1.56 1.47 1.29 1.07 0.95 0.78 0.69 0.64 0.63 0.39 0.40 0.55 0.65 0.80 0.79 0.59 0.42 0.61
1.39 1.37 1.00 0.98 1.10 1.11 1.08 1.45 1.64 1.31 1.21 1.09 1.23 1.47 1.43 1.48 1.68 1.98 2.11 2.01 1.95 1.61 1.48 1.59 1.58 1.45 1.37 1.21 0.99 0.93 0.85 0.85 0.77 0.85 0.74 0.52 0.57 0.60 0.65 0.85 1.28 1.25 1.21

GFSSE_prec_precacc_159.txt.gz
Total_Precipitation_Accumulation
0.08 0.16 0.41 0.31 0.26 0.35 0.25 0.22 0.22 0.16 0.20 0.19 0.17 0.14 0.13 0.26 0.30 0.17 0.13 0.08 0.15 0.20 0.20 0.30 0.52 0.62 0.63 0.38 0.18 0.12 0.13 0.14 0.17 0.19 0.22 0.26 0.26 0.16 0.12 0.11 0.11 0.09 0.15
0.04 0.09 0.32 0.31 0.38 0.47 0.47 0.31 0.25 0.14 0.17 0.17 0.24 0.19 0.14 0.32 0.20 0.07 0.04 0.09 0.19 0.27 0.30 0.38 0.39 0.28 0.19 0.08 0.03 0.02 0.01 0.04 0.06 0.03 0.02 0.02 0.10 0.12 0.06 0.06 0.15 0.12 0.14
0.05 0.11 0.16 0.26 0.33 0.39 0.41 0.29 0.13 0.10 0.14 0.16 0.26 0.30 0.19 0.32 0.10 0.04 0.08 0.11 0.37 0.36 0.38 0.34 0.14 0.03 0.04 0.03 0.01 0.01 0.00 0.03 0.05 0.06 0.03 0.02 0.05 0.13 0.11 0.09 0.11 0.10 0.09
0.05 0.12 0.13 0.24 0.30 0.26 0.30 0.27 0.23 0.14 0.13 0.17 0.29 0.27 0.26 0.30 0.04 0.08 0.08 0.15 0.41 0.38 0.19 0.05 0.01 0.02 0.02 0.03 0.01 0.01 0.01 0.01 0.01 0.02 0.02 0.00 0.01 0.03 0.06 0.10 0.09 0.08 0.08
0.10 0.26 0.21 0.29 0.32 0.28 0.24 0.29 0.31 0.34 0.38 0.31 0.34 0.46 0.47 0.34 0.19 0.29 0.16 0.17 0.20 0.07 0.02 0.02 0.01 0.00 0.00 0.02 0.01 0.00 0.00 0.00 0.00 0.00 0.00 0.02 0.05 0.15 0.14 0.13 0.14 0.17 0.22
0.18 0.39 0.47 0.43 0.40 0.30 0.25 0.24 0.24 0.25 0.31 0.37 0.41 0.47 0.39 0.29 0.52 0.64 0.29 0.14 0.05 0.04 0.02 0.01 0.00 0.00 0.00 0.01 0.02 0.00 0.00 0.00 0.00 0.01 0.01 0.05 0.09 0.21 0.16 0.13 0.22 0.27 0.27
0.15 0.26 0.43 0.56 0.43 0.38 0.34 0.25 0.29 0.33 0.33 0.32 0.37 0.31 0.21 0.29 0.77 0.72 0.40 0.16 0.04 0.03 0.02 0.00 0.00 0.00 0.00 0.00 0.02 0.03 0.01 0.00 0.00 0.00 0.00 0.01 0.04 0.08 0.07 0.05 0.04 0.08 0.12
0.33 0.43 0.36 0.33 0.31 0.30 0.33 0.36 0.34 0.33 0.34 0.40 0.41 0.44 0.46 0.45 0.65 0.63 0.44 0.31 0.09 0.03 0.01 0.01 0.00 0.02 0.01 0.01 0.01 0.01 0.01 0.00 0.00 0.00 0.00 0.01 0.03 0.02 0.03 0.04 0.04 0.06 0.06
0.88 0.91 0.87 0.47 0.37 0.23 0.17 0.20 0.37 0.35 0.33 0.33 0.38 0.40 0.30 0.26 0.32 0.40 0.35 0.29 0.17 0.10 0.11 0.05 0.02 0.02 0.02 0.02 0.02 0.02 0.01 0.00 0.00 0.00 0.00 0.01 0.02 0.01 0.02 0.05 0.06 0.06 0.08
1.34 1.23 1.15 0.78 0.48 0.20 0.13 0.15 0.24 0.26 0.21 0.27 0.29 0.21 0.11 0.06 0.10 0.28 0.12 0.10 0.19 0.20 0.17 0.15 0.11 0.10 0.10 0.07 0.04 0.02 0.01 0.00 0.00 0.00 0.00 0.00 0.01 0.02 0.04 0.05 0.06 0.07 0.11
1.77 1.65 1.50 1.28 0.71 0.36 0.14 0.11 0.20 0.27 0.21 0.20 0.21 0.18 0.15 0.05 0.06 0.17 0.11 0.03 0.06 0.13 0.13 0.17 0.19 0.17 0.09 0.03 0.02 0.03 0.02 0.00 0.00 0.00 0.00 0.00 0.01 0.02 0.04 0.04 0.06 0.07 0.07
1.84 1.66 1.50 1.31 0.86 0.41 0.29 0.23 0.12 0.28 0.21 0.07 0.09 0.13 0.15 0.13 0.10 0.11 0.10 0.05 0.05 0.07 0.07 0.12 0.12 0.11 0.06 0.02 0.02 0.01 0.01 0.00 0.00 0.00 0.00 0.00 0.00 0.03 0.03 0.04 0.05 0.03 0.03
2.25 1.53 1.25 1.20 1.14 0.67 0.30 0.21 0.16 0.49 0.38 0.18 0.08 0.09 0.12 0.11 0.12 0.18 0.17 0.08 0.05 0.03 0.02 0.03 0.03 0.06 0.06 0.08 0.07 0.05 0.01 0.01 0.00 0.00 0.00 0.00 0.00 0.04 0.06 0.06 0.07 0.04 0.06
3.49 1.92 1.30 1.02 0.73 0.60 0.36 0.10 0.08 0.24 0.29 0.25 0.17 0.09 0.10 0.08 0.11 0.16 0.14 0.09 0.10 0.08 0.05 0.06 0.05 0.03 0.04 0.07 0.08 0.06 0.06 0.04 0.02 0.01 0.00 0.00 0.02 0.04 0.11 0.15 0.17 0.19 0.21
4.14 3.67 2.07 1.51 1.41 0.55 0.40 0.12 0.06 0.11 0.36 0.27 0.26 0.15 0.16 0.14 0.15 0.12 0.14 0.13 0.09 0.06 0.05 0.06 0.05 0.03 0.03 0.06 0.11 0.10 0.08 0.08 0.06 0.06 0.01 0.01 0.03 0.05 0.04 0.10 0.17 0.16 0.20
1.62 3.06 3.61 2.19 1.43 1.22 0.84 0.31 0.10 0.04 0.16 0.38 0.26 0.20 0.18 0.30 0.35 0.18 0.16 0.11 0.07 0.09 0.06 0.06 0.07 0.08 0.04 0.04 0.03 0.05 0.09 0.10 0.11 0.08 0.08 0.08 0.08 0.06 0.04 0.06 0.10 0.17 0.28
0.85 1.63 2.32 2.43 1.66 1.26 1.14 0.75 0.24 0.13 0.07 0.27 0.34 0.25 0.19 0.21 0.20 0.24 0.20 0.19 0.22 0.34 0.41 0.32 0.22 0.21 0.13 0.10 0.08 0.03 0.03 0.07 0.10 0.10 0.11 0.13 0.17 0.15 0.12 0.08 0.10 0.16 0.29
0.56 0.75 1.13 1.11 1.53 1.20 1.40 1.06 0.72 0.37 0.16 0.17 0.45 0.41 0.29 0.30 0.23 0.19 0.13 0.09 0.25 0.51 0.66 0.52 0.37 0.32 0.22 0.20 0.21 0.19 0.20 0.17 0.12 0.14 0.16 0.17 0.18 0.17 0.14 0.11 0.11 0.14 0.16
0.45 0.52 0.66 0.65 0.58 0.85 1.08 1.39 1.24 0.90 0.43 0.22 0.26 0.43 0.58 0.40 0.48 0.37 0.25 0.17 0.29 0.47 0.48 0.47 0.46 0.44 0.35 0.30 0.30 0.34 0.32 0.26 0.23 0.21 0.17 0.21 0.27 0.33 0.32 0.24 0.22 0.15 0.15
0.53 0.43 0.40 0.45 0.36 0.46 0.73 1.21 1.35 1.13 0.87 0.47 0.23 0.14 0.43 0.84 0.69 0.77 0.58 0.43 0.49 0.56 0.70 0.74 0.40 0.46 0.45 0.57 0.61 0.42 0.37 0.32 0.27 0.26 0.25 0.26 0.31 0.38 0.42 0.46 0.46 0.50 0.59
0.70 0.52 0.34 0.28 0.38 0.48 0.60 0.80 0.99 0.92 1.06 0.95 0.74 0.70 0.40 0.46 0.75 0.78 0.76 0.83 0.80 0.70 0.63 0.74 0.81 0.66 0.44 0.55 0.65 0.40 0.35 0.29 0.22 0.23 0.31 0.36 0.34 0.44 0.62 0.82 0.88 0.81 0.71
1.00 0.72 0.68 0.55 0.71 0.54 0.62 0.93 1.06 1.09 1.03 1.25 1.25 1.04 1.21 1.01 0.95 0.91 0.65 0.57 0.66 0.73 0.68 0.59 0.65 0.71 0.58 0.68 0.67 0.50 0.27 0.15 0.09 0.06 0.13 0.19 0.25 0.36 0.39 0.44 0.49 0.63 0.71
1.25 0.85 0.73 0.76 0.68 0.47 0.55 0.82 1.15 1.46 1.46 1.09 0.75 0.68 0.75 1.15 1.23 1.27 1.19 1.17 1.07 0.93 0.82 0.73 0.74 0.85 0.85 0.81 0.72 0.83 0.42 0.15 0.13 0.14 0.15 0.18 0.21 0.26 0.31 0.49 0.59 0.59 0.48
1.24 0.87 0.73 0.87 0.82 0.85 1.12 1.20 0.98 1.03 1.26 1.17 1.32 1.16 1.37 1.32 1.26 1.43 1.59 1.51 1.57 1.57 1.30 1.23 1.13 1.14 1.09 0.78 0.73 0.62 0.66 0.45 0.34 0.18 0.14 0.24 0.27 0.42 0.57 0.64 0.66 0.51 0.37
1.57 0.95 0.70 1.20 1.30 1.23 1.19 1.65 1.60 1.71 1.37 1.41 1.60 1.67 1.60 1.78 1.92 1.98 2.01 2.07 1.87 1.87 2.05 1.84 1.68 1.56 1.47 1.29 1.07 0.95 0.78 0.69 0.64 0.63 0.39 0.40 0.55 0.65 0.80 0.79 0.60 0.42 0.61
1.39 1.37 1.00 0.98 1.10 1.11 1.08 1.45 1.64 1.31 1.21 1.09 1.23 1.47 1.43 1.48 1.68 1.98 2.11 2.01 1.95 1.61 1.48 1.59 1.58 1.45 1.37 1.21 0.99 0.93 0.85 0.85 0.77 0.85 0.74 0.52 0.57 0.60 0.65 0.85 1.28 1.25 1.21

GFSSE_prec_precacc_162.txt.gz
Total_Precipitation_Accumulation
0.08 0.16 0.42 0.31 0.26 0.35 0.25 0.22 0.22 0.16 0.20 0.19 0.17 0.14 0.13 0.26 0.30 0.18 0.13 0.09 0.15 0.20 0.20 0.30 0.53 0.63 0.63 0.38 0.18 0.12 0.13 0.14 0.17 0.19 0.22 0.26 0.26 0.16 0.12 0.11 0.11 0.09 0.16
0.04 0.09 0.32 0.31 0.38 0.47 0.47 0.31 0.25 0.14 0.17 0.17 0.24 0.19 0.14 0.32 0.20 0.07 0.04 0.11 0.21 0.28 0.30 0.38 0.39 0.29 0.20 0.08 0.03 0.03 0.02 0.04 0.06 0.03 0.02 0.02 0.10 0.12 0.06 0.06 0.15 0.12 0.14
0.05 0.11 0.16 0.26 0.33 0.39 0.41 0.29 0.13 0.10 0.14 0.16 0.26 0.30 0.19 0.32 0.10 0.04 0.08 0.11 0.38 0.39 0.38 0.34 0.14 0.03 0.05 0.03 0.01 0.02 0.00 0.03 0.05 0.06 0.03 0.02 0.05 0.13 0.11 0.09 0.11 0.10 0.09
0.05 0.12 0.13 0.24 0.30 0.26 0.30 0.27 0.23 0.14 0.13 0.17 0.29 0.27 0.26 0.30 0.04 0.08 0.08 0.15 0.41 0.39 0.19 0.05 0.01 0.02 0.02 0.03 0.01 0.01 0.01 0.01 0.01 0.02 0.02 0.00 0.01 0.03 0.06 0.10 0.09 0.08 0.08
0.10 0.26 0.21 0.30 0.33 0.29 0.25 0.29 0.31 0.34 0.38 0.31 0.34 0.46 0.47 0.34 0.19 0.29 0.16 0.17 0.20 0.07 0.03 0.02 0.01 0.00 0.00 0.02 0.01 0.00 0.00 0.00 0.00 0.00 0.00 0.02 0.05 0.15 0.14 0.13 0.14 0.17 0.22
0.18 0.40 0.47 0.44 0.40 0.31 0.27 0.25 0.24 0.25 0.31 0.37 0.41 0.47 0.39 0.29 0.53 0.66 0.31 0.15 0.05 0.04 0.03 0.02 0.01 0.00 0.00 0.01 0.02 0.00 0.00 0.00 0.00 0.01 0.01 0.05 0.09 0.21 0.16 0.13 0.22 0.27 0.27
0.15 0.26 0.44 0.56 0.43 0.38 0.34 0.25 0.29 0.33 0.33 0.32 0.37 0.31 0.21 0.31 0.80 0.75 0.44 0.18 0.05 0.03 0.02 0.01 0.01 0.03 0.03 0.01 0.02 0.03 0.01 0.00 0.00 0.00 0.00 0.01 0.04 0.08 0.07 0.06 0.05 0.08 0.12
0.33 0.43 0.36 0.33 0.31 0.30 0.33 0.36 0.34 0.33 0.34 0.40 0.41 0.44 0.47 0.46 0.65 0.63 0.45 0.32 0.10 0.05 0.05 0.02 0.01 0.05 0.05 0.02 0.01 0.01 0.01 0.00 0.00 0.00 0.00 0.01 0.03 0.02 0.03 0.04 0.04 0.06 0.06
0.88 0.91 0.87 0.47 0.37 0.23 0.17 0.20 0.37 0.35 0.33 0.33 0.38 0.40 0.30 0.26 0.32 0.40 0.35 0.29 0.17 0.10 0.14 0.08 0.04 0.06 0.08 0.08 0.07 0.04 0.02 0.00 0.00 0.00 0.00 0.01 0.02 0.01 0.02 0.05 0.06 0.07 0.09
1.34 1.23 1.15 0.78 0.48 0.20 0.13 0.15 0.24 0.26 0.21 0.27 0.29 0.21 0.11 0.06 0.10 0.28 0.12 0.10 0.19 0.20 0.18 0.16 0.13 0.12 0.13 0.10 0.07 0.06 0.04 0.02 0.00 0.00 0.00 0.00 0.01 0.02 0.04 0.05 0.06 0.08 0.12
1.77 1.65 1.50 1.28 0.71 0.36 0.14 0.11 0.20 0.27 0.21 0.20 0.21 0.18 0.15 0.05 0.06 0.17 0.11 0.03 0.06 0.13 0.13 0.17 0.19 0.18 0.10 0.04 0.02 0.04 0.04 0.01 0.01 0.00 0.00 0.00 0.01 0.03 0.05 0.04 0.07 0.07 0.09
1.84 1.66 1.50 1.31 0.86 0.41 0.29 0.23 0.12 0.28 0.21 0.07 0.09 0.13 0.15 0.13 0.10 0.11 0.10 0.05 0.05 0.07 0.07 0.12 0.12 0.11 0.06 0.02 0.02 0.01 0.01 0.01 0.01 0.00 0.00 0.00 0.02 0.09 0.09 0.08 0.07 0.04 0.04
2.25 1.53 1.25 1.20 1.14 0.67 0.30 0.21 0.16 0.49 0.38 0.18 0.08 0.09 0.12 0.11 0.12 0.18 0.17 0.08 0.05 0.03 0.02 0.03 0.03 0.06 0.06 0.08 0.07 0.05 0.01 0.01 0.00 0.00 0.00 0.01 0.01 0.07 0.12 0.13 0.15 0.10 0.10
3.49 1.92 1.30 1.02 0.73 0.60 0.36 0.10 0.08 0.24 0.29 0.25 0.17 0.09 0.10 0.08 0.11 0.16 0.14 0.09 0.10 0.08 0.05 0.06 0.05 0.03 0.04 0.07 0.08 0.06 0.06 0.04 0.02 0.01 0.00 0.01 0.03 0.04 0.11 0.19 0.24 0.25 0.26
4.14 3.67 2.07 1.51 1.41 0.55 0.40 0.12 0.06 0.11 0.36 0.27 0.26 0.15 0.16 0.14 0.15 0.12 0.14 0.13 0.09 0.06 0.05 0.06 0.05 0.03 0.03 0.06 0.11 0.10 0.08 0.08 0.06 0.06 0.01 0.01 0.03 0.05 0.04 0.10 0.19 0.19 0.24
1.62 3.06 3.61 2.19 1.43 1.22 0.84 0.31 0.10 0.04 0.16 0.38 0.26 0.20 0.18 0.30 0.35 0.18 0.16 0.11 0.07 0.09 0.06 0.06 0.07 0.08 0.04 0.04 0.03 0.05 0.09 0.10 0.11 0.08 0.08 0.08 0.08 0.06 0.04 0.06 0.10 0.17 0.29
0.85 1.63 2.32 2.43 1.66 1.26 1.14 0.75 0.24 0.13 0.07 0.27 0.34 0.25 0.19 0.21 0.20 0.24 0.20 0.19 0.22 0.34 0.41 0.32 0.22 0.21 0.13 0.10 0.08 0.03 0.03 0.07 0.10 0.10 0.11 0.13 0.17 0.15 0.12 0.08 0.10 0.16 0.29
0.56 0.75 1.13 1.11 1.53 1.20 1.40 1.06 0.72 0.37 0.16 0.17 0.45 0.41 0.29 0.30 0.23 0.19 0.13 0.09 0.25 0.51 0.66 0.52 0.37 0.32 0.22 0.20 0.21 0.19 0.20 0.17 0.12 0.14 0.16 0.17 0.18 0.17 0.14 0.11 0.11 0.14 0.16
0.45 0.52 0.66 0.65 0.58 0.85 1.08 1.39 1.24 0.90 0.43 0.22 0.26 0.43 0.58 0.40 0.48 0.37 0.25 0.17 0.29 0.47 0.48 0.47 0.46 0.44 0.35 0.30 0.30 0.34 0.32 0.26 0.23 0.21 0.17 0.21 0.27 0.33 0.32 0.24 0.22 0.15 0.15
0.53 0.43 0.40 0.45 0.36 0.46 0.73 1.21 1.35 1.13 0.87 0.47 0.23 0.14 0.43 0.84 0.69 0.77 0.58 0.43 0.49 0.56 0.70 0.74 0.40 0.46 0.45 0.57 0.61 0.42 0.37 0.32 0.27 0.26 0.25 0.26 0.31 0.38 0.42 0.46 0.46 0.50 0.59
0.70 0.52 0.34 0.28 0.38 0.48 0.60 0.80 0.99 0.92 1.06 0.95 0.74 0.70 0.40 0.46 0.75 0.78 0.76 0.83 0.80 0.70 0.63 0.74 0.81 0.66 0.44 0.55 0.65 0.40 0.35 0.29 0.22 0.23 0.31 0.36 0.34 0.44 0.62 0.82 0.88 0.81 0.71
1.00 0.72 0.68 0.55 0.71 0.54 0.62 0.93 1.06 1.09 1.03 1.25 1.25 1.04 1.21 1.01 0.95 0.91 0.65 0.57 0.66 0.73 0.68 0.59 0.65 0.71 0.58 0.68 0.67 0.50 0.27 0.15 0.09 0.06 0.13 0.19 0.25 0.36 0.39 0.44 0.49 0.63 0.71
1.25 0.85 0.73 0.76 0.68 0.47 0.55 0.82 1.15 1.46 1.46 1.09 0.75 0.68 0.75 1.15 1.23 1.27 1.19 1.17 1.07 0.93 0.82 0.73 0.74 0.85 0.85 0.81 0.72 0.83 0.42 0.15 0.13 0.14 0.15 0.18 0.21 0.26 0.31 0.49 0.59 0.59 0.48
1.24 0.87 0.73 0.87 0.82 0.85 1.12 1.20 0.98 1.03 1.26 1.17 1.32 1.16 1.37 1.32 1.26 1.43 1.59 1.51 1.57 1.57 1.30 1.23 1.14 1.14 1.09 0.78 0.74 0.62 0.66 0.45 0.34 0.18 0.14 0.24 0.27 0.42 0.57 0.64 0.66 0.51 0.37
1.57 0.95 0.70 1.20 1.30 1.23 1.19 1.65 1.60 1.71 1.37 1.41 1.60 1.67 1.60 1.78 1.92 1.98 2.01 2.07 1.87 1.87 2.05 1.84 1.68 1.56 1.48 1.30 1.07 0.95 0.78 0.69 0.64 0.63 0.39 0.40 0.55 0.65 0.80 0.79 0.60 0.42 0.61
1.39 1.37 1.00 0.98 1.10 1.11 1.08 1.45 1.64 1.31 1.21 1.09 1.23 1.47 1.43 1.48 1.68 1.98 2.11 2.01 1.95 1.61 1.48 1.59 1.58 1.45 1.37 1.21 1.00 0.93 0.86 0.86 0.77 0.85 0.75 0.52 0.57 0.60 0.65 0.85 1.28 1.25 1.21